Location: Stake Lake Observatory
(50.5113°N, 120.4813°W)
Time: 02:28:15
(UTC-07:00)

ISS - Visible Passes

Search period start: 21 May 2022 00:00
Search period end: 31 May 2022 00:00
Orbit: 414 x 421 km, 51.6° (Epoch: 20 May)

Date Brightness Start Highest point End Pass type
(mag) Time Alt. Az. Time Alt. Az. Time Alt. Az.
21 May -2.9 00:29:33 10° W 00:31:55 37° WSW 00:31:55 37° WSW visible
21 May -3.5 22:04:41 10° W 22:08:03 70° N 22:11:24 10° E visible
21 May -3.9 23:41:32 10° WNW 23:44:52 66° SSW 23:45:26 53° SSE visible
22 May -3.9 22:53:31 10° WNW 22:56:52 84° SSW 22:58:58 21° ESE visible
23 May -1.8 00:30:34 10° W 00:31:52 18° WSW 00:31:52 18° WSW visible
23 May -3.7 22:05:29 10° WNW 22:08:51 82° N 22:12:12 10° E visible
23 May -3.0 23:42:22 10° W 23:45:24 35° SSW 23:45:24 35° SSW visible
24 May -3.5 22:54:15 10° WNW 22:57:31 50° SSW 22:58:57 28° SE visible
25 May -3.7 22:06:10 10° WNW 22:09:30 68° SSW 22:12:30 12° ESE visible
25 May -1.8 23:43:30 10° W 23:45:24 17° SW 23:45:24 17° SW visible
26 May -2.4 22:55:05 10° W 22:57:55 26° SW 22:58:58 22° S visible
27 May -2.9 22:06:50 10° W 22:09:57 36° SSW 22:12:32 13° SE visible
28 May -1.4 22:56:36 10° WSW 22:58:05 12° SW 22:59:02 11° SSW visible
29 May -1.8 22:07:45 10° W 22:10:09 18° SW 22:12:32 10° S visible
